Wetterdaten: Dienstag, 13.11.2012
Datum Zeit Temperatur Luftfeuchte Regen Wind Richtung Richtung Taupunkt Windchill Windben
13.11.2012 00:00 4,7 C 97 % 0,0 l/m 2,6 km/h (1 Bft) W 270 4,3 C 4,7 C 2,6 km/h (1 Bft)
13.11.2012 00:05 4,7 C 97 % 0,0 l/m 2,6 km/h (1 Bft) W-NW 292 4,3 C 4,7 C 3,7 km/h (1 Bft)
13.11.2012 00:10 4,6 C 97 % 0,0 l/m 2,4 km/h (1 Bft) W 270 4,2 C 4,7 C 3,1 km/h (1 Bft)
13.11.2012 00:15 4,6 C 97 % 0,0 l/m 2,3 km/h (1 Bft) W 270 4,2 C 4,7 C 1,8 km/h (1 Bft)
13.11.2012 00:20 4,6 C 97 % 0,0 l/m 1,8 km/h (1 Bft) W-NW 292 4,2 C 4,7 C 4,7 km/h (1 Bft)
13.11.2012 00:25 4,6 C 97 % 0,0 l/m 2,4 km/h (1 Bft) W-NW 292 4,2 C 4,7 C 6,0 km/h (2 Bft)
13.11.2012 00:30 4,6 C 97 % 0,0 l/m 3,5 km/h (1 Bft) N-NW 337 4,2 C 4,3 C 6,3 km/h (2 Bft)
13.11.2012 00:35 4,6 C 97 % 0,0 l/m 3,1 km/h (1 Bft) W-SW 247 4,2 C 4,6 C 2,3 km/h (1 Bft)
13.11.2012 00:40 4,6 C 97 % 0,0 l/m 1,9 km/h (1 Bft) W-SW 247 4,2 C 4,6 C 0,0 km/h (0 Bft)
13.11.2012 00:45 4,6 C 97 % 0,0 l/m 1,8 km/h (1 Bft) W-SW 247 4,2 C 4,6 C 3,1 km/h (1 Bft)
13.11.2012 00:50 4,6 C 97 % 0,0 l/m 1,9 km/h (1 Bft) N-NW 337 4,2 C 4,6 C 2,4 km/h (1 Bft)
13.11.2012 00:55 4,6 C 97 % 0,0 l/m 2,3 km/h (1 Bft) NW 315 4,2 C 4,6 C 0,0 km/h (0 Bft)
13.11.2012 01:00 4,6 C 97 % 0,0 l/m 1,9 km/h (1 Bft) N-NW 337 4,2 C 4,6 C 2,6 km/h (1 Bft)
13.11.2012 01:05 4,6 C 97 % 0,0 l/m 1,4 km/h (1 Bft) N-NW 337 4,2 C 4,6 C 3,1 km/h (1 Bft)
13.11.2012 01:10 4,6 C 97 % 0,0 l/m 1,9 km/h (1 Bft) W-SW 247 4,2 C 4,6 C 1,6 km/h (1 Bft)
13.11.2012 01:15 4,6 C 97 % 0,0 l/m 2,1 km/h (1 Bft) W-SW 247 4,2 C 4,6 C 0,0 km/h (0 Bft)
13.11.2012 01:20 4,6 C 97 % 0,0 l/m 1,6 km/h (1 Bft) W 270 4,2 C 4,6 C 2,3 km/h (1 Bft)
13.11.2012 01:25 4,6 C 97 % 0,0 l/m 1,8 km/h (1 Bft) W-NW 292 4,2 C 4,6 C 0,0 km/h (0 Bft)
13.11.2012 01:30 4,6 C 97 % 0,0 l/m 1,3 km/h (1 Bft) W 270 4,2 C 4,6 C 1,9 km/h (1 Bft)
13.11.2012 01:35 4,6 C 97 % 0,0 l/m 1,1 km/h (1 Bft) W-NW 292 4,2 C 4,6 C 3,2 km/h (1 Bft)
13.11.2012 01:40 4,6 C 97 % 0,0 l/m 2,1 km/h (1 Bft) W 270 4,2 C 4,6 C 2,3 km/h (1 Bft)
13.11.2012 01:45 4,6 C 97 % 0,0 l/m 2,4 km/h (1 Bft) W-NW 292 4,2 C 4,6 C 3,9 km/h (1 Bft)
13.11.2012 01:50 4,6 C 97 % 0,0 l/m 2,3 km/h (1 Bft) W-NW 292 4,2 C 4,6 C 2,9 km/h (1 Bft)
13.11.2012 01:55 4,6 C 97 % 0,0 l/m 1,8 km/h (1 Bft) W-SW 247 4,2 C 4,6 C 0,0 km/h (0 Bft)
13.11.2012 02:00 4,6 C 97 % 0,7 l/m 1,0 km/h (0 Bft) W-SW 247 4,2 C 4,6 C 2,7 km/h (1 Bft)
13.11.2012 02:05 4,6 C 97 % 0,0 l/m 1,6 km/h (1 Bft) W 270 4,2 C 4,6 C 4,2 km/h (1 Bft)
13.11.2012 02:10 4,6 C 97 % 0,0 l/m 1,8 km/h (1 Bft) W-NW 292 4,2 C 4,6 C 2,9 km/h (1 Bft)
13.11.2012 02:15 4,6 C 97 % 0,0 l/m 1,8 km/h (1 Bft) SO 135 4,2 C 4,6 C 0,0 km/h (0 Bft)
13.11.2012 02:20 4,6 C 97 % 0,0 l/m 2,6 km/h (1 Bft) W 270 4,2 C 4,6 C 6,6 km/h (2 Bft)
13.11.2012 02:25 4,6 C 97 % 0,0 l/m 2,1 km/h (1 Bft) N 360 4,2 C 4,6 C 0,0 km/h (0 Bft)
13.11.2012 02:30 4,6 C 97 % 0,0 l/m 2,3 km/h (1 Bft) S-SW 202 4,2 C 4,6 C 3,5 km/h (1 Bft)
13.11.2012 02:35 4,5 C 97 % 0,0 l/m 2,6 km/h (1 Bft) W-NW 292 4,1 C 4,5 C 2,6 km/h (1 Bft)
13.11.2012 02:40 4,4 C 97 % 0,0 l/m 3,4 km/h (1 Bft) W-NW 292 4,0 C 4,3 C 6,4 km/h (2 Bft)
13.11.2012 02:45 4,4 C 97 % 0,0 l/m 3,1 km/h (1 Bft) W 270 4,0 C 4,4 C 3,2 km/h (1 Bft)
13.11.2012 02:50 4,4 C 97 % 0,0 l/m 2,1 km/h (1 Bft) W-NW 292 4,0 C 4,5 C 7,4 km/h (2 Bft)
13.11.2012 02:55 4,4 C 97 % 0,0 l/m 2,4 km/h (1 Bft) S 180 4,0 C 4,4 C 3,1 km/h (1 Bft)
13.11.2012 03:00 4,4 C 97 % 0,0 l/m 2,6 km/h (1 Bft) W-NW 292 4,0 C 4,4 C 4,8 km/h (1 Bft)
13.11.2012 03:05 4,4 C 97 % 0,0 l/m 2,4 km/h (1 Bft) W-NW 292 4,0 C 4,4 C 3,7 km/h (1 Bft)
13.11.2012 03:10 4,3 C 97 % 0,0 l/m 2,9 km/h (1 Bft) W-SW 247 3,9 C 4,3 C 2,7 km/h (1 Bft)
13.11.2012 03:15 4,3 C 97 % 0,0 l/m 2,7 km/h (1 Bft) W-NW 292 3,9 C 4,3 C 3,2 km/h (1 Bft)
13.11.2012 03:20 4,3 C 97 % 0,0 l/m 2,7 km/h (1 Bft) W-NW 292 3,9 C 4,3 C 4,2 km/h (1 Bft)
13.11.2012 03:25 4,3 C 97 % 0,0 l/m 3,1 km/h (1 Bft) W-SW 247 3,9 C 4,2 C 3,5 km/h (1 Bft)
13.11.2012 03:30 4,3 C 97 % 0,0 l/m 2,4 km/h (1 Bft) W 270 3,9 C 4,3 C 2,1 km/h (1 Bft)
13.11.2012 03:35 4,3 C 97 % 0,0 l/m 2,6 km/h (1 Bft) W-SW 247 3,9 C 4,3 C 5,3 km/h (1 Bft)
13.11.2012 03:40 4,2 C 97 % 0,0 l/m 2,6 km/h (1 Bft) W-SW 247 3,8 C 4,3 C 3,5 km/h (1 Bft)
13.11.2012 03:45 4,2 C 97 % 0,0 l/m 2,4 km/h (1 Bft) SO 135 3,8 C 4,3 C 2,6 km/h (1 Bft)
13.11.2012 03:50 4,2 C 97 % 0,0 l/m 1,9 km/h (1 Bft) W-NW 292 3,8 C 4,3 C 3,4 km/h (1 Bft)
13.11.2012 03:55 4,2 C 97 % 0,0 l/m 1,6 km/h (1 Bft) W-NW 292 3,8 C 4,3 C 2,4 km/h (1 Bft)
13.11.2012 04:00 4,2 C 97 % 0,0 l/m 2,1 km/h (1 Bft) S-SW 202 3,8 C 4,2 C 1,6 km/h (1 Bft)
13.11.2012 04:05 4,2 C 97 % 0,0 l/m 2,4 km/h (1 Bft) W 270 3,8 C 4,2 C 2,1 km/h (1 Bft)
13.11.2012 04:10 4,2 C 97 % 0,0 l/m 1,9 km/h (1 Bft) W-SW 247 3,8 C 4,2 C 3,5 km/h (1 Bft)
13.11.2012 04:15 4,2 C 97 % 0,0 l/m 1,9 km/h (1 Bft) W-NW 292 3,8 C 4,2 C 3,4 km/h (1 Bft)
13.11.2012 04:20 4,2 C 97 % 0,0 l/m 2,6 km/h (1 Bft) W-NW 292 3,8 C 4,2 C 4,8 km/h (1 Bft)
13.11.2012 04:25 4,2 C 97 % 0,0 l/m 2,9 km/h (1 Bft) W-NW 292 3,8 C 4,2 C 4,2 km/h (1 Bft)
13.11.2012 04:30 4,2 C 97 % 0,0 l/m 2,3 km/h (1 Bft) W 270 3,8 C 4,2 C 3,2 km/h (1 Bft)
13.11.2012 04:35 4,2 C 97 % 0,0 l/m 2,3 km/h (1 Bft) W-NW 292 3,8 C 4,2 C 3,4 km/h (1 Bft)
13.11.2012 04:40 4,2 C 97 % 0,0 l/m 2,4 km/h (1 Bft) W-SW 247 3,8 C 4,2 C 2,1 km/h (1 Bft)
13.11.2012 04:45 4,1 C 97 % 0,0 l/m 2,7 km/h (1 Bft) W 270 3,7 C 4,2 C 7,1 km/h (2 Bft)
13.11.2012 04:50 4,2 C 97 % 0,0 l/m 3,1 km/h (1 Bft) W-NW 292 3,8 C 4,1 C 4,0 km/h (1 Bft)
13.11.2012 04:55 4,1 C 97 % 0,0 l/m 3,1 km/h (1 Bft) N-NW 337 3,7 C 4,0 C 0,0 km/h (0 Bft)
13.11.2012 05:00 4,1 C 97 % 0,0 l/m 2,4 km/h (1 Bft) S-SW 202 3,7 C 4,1 C 2,3 km/h (1 Bft)
13.11.2012 05:05 4,1 C 97 % 0,0 l/m 1,8 km/h (1 Bft) W-SW 247 3,7 C 4,1 C 2,1 km/h (1 Bft)
13.11.2012 05:10 4,1 C 97 % 0,0 l/m 1,6 km/h (1 Bft) W-SW 247 3,7 C 4,1 C 3,5 km/h (1 Bft)
13.11.2012 05:15 4,1 C 97 % 0,0 l/m 1,4 km/h (1 Bft) W-SW 247 3,7 C 4,1 C 2,1 km/h (1 Bft)
13.11.2012 05:20 4,1 C 97 % 0,0 l/m 1,9 km/h (1 Bft) S 180 3,7 C 4,1 C 0,0 km/h (0 Bft)
13.11.2012 05:25 4,1 C 97 % 0,0 l/m 2,3 km/h (1 Bft) W-SW 247 3,7 C 4,1 C 2,1 km/h (1 Bft)
13.11.2012 05:30 4,1 C 97 % 0,0 l/m 1,8 km/h (1 Bft) NO 45 3,7 C 4,1 C 2,1 km/h (1 Bft)
13.11.2012 05:35 4,0 C 97 % 0,0 l/m 1,6 km/h (1 Bft) N 360 3,6 C 4,1 C 1,8 km/h (1 Bft)
13.11.2012 05:40 4,0 C 97 % 0,0 l/m 2,9 km/h (1 Bft) W-SW 247 3,6 C 4,0 C 5,0 km/h (1 Bft)
13.11.2012 05:45 4,0 C 97 % 0,0 l/m 3,1 km/h (1 Bft) W-NW 292 3,6 C 3,9 C 1,8 km/h (1 Bft)
13.11.2012 05:50 4,0 C 97 % 0,0 l/m 2,7 km/h (1 Bft) W 270 3,6 C 4,0 C 5,3 km/h (1 Bft)
13.11.2012 05:55 4,0 C 97 % 0,0 l/m 3,1 km/h (1 Bft) W 270 3,6 C 3,9 C 4,5 km/h (1 Bft)
13.11.2012 06:00 4,0 C 97 % 0,0 l/m 3,7 km/h (1 Bft) NW 315 3,6 C 3,6 C 5,6 km/h (1 Bft)
13.11.2012 06:05 4,0 C 97 % 0,0 l/m 3,5 km/h (1 Bft) N-NW 337 3,6 C 3,6 C 1,6 km/h (1 Bft)
13.11.2012 06:10 3,9 C 98 % 0,0 l/m 2,9 km/h (1 Bft) W 270 3,6 C 3,8 C 5,1 km/h (1 Bft)
13.11.2012 06:15 3,9 C 98 % 0,0 l/m 3,1 km/h (1 Bft) W-SW 247 3,6 C 3,8 C 4,0 km/h (1 Bft)
13.11.2012 06:20 4,0 C 97 % 0,0 l/m 3,5 km/h (1 Bft) W-SW 247 3,6 C 3,5 C 5,6 km/h (1 Bft)
13.11.2012 06:25 4,0 C 97 % 0,0 l/m 2,9 km/h (1 Bft) W 270 3,6 C 4,0 C 2,9 km/h (1 Bft)
13.11.2012 06:30 4,0 C 97 % 0,0 l/m 2,7 km/h (1 Bft) NW 315 3,6 C 4,0 C 2,1 km/h (1 Bft)
13.11.2012 06:35 4,0 C 97 % 0,0 l/m 2,3 km/h (1 Bft) S 180 3,6 C 4,0 C 4,3 km/h (1 Bft)
13.11.2012 06:40 3,9 C 98 % 0,0 l/m 2,4 km/h (1 Bft) NW 315 3,6 C 3,9 C 6,8 km/h (2 Bft)
13.11.2012 06:45 3,9 C 98 % 0,0 l/m 3,2 km/h (1 Bft) S-SO 157 3,6 C 3,7 C 0,0 km/h (0 Bft)
13.11.2012 06:50 3,9 C 98 % 0,0 l/m 2,9 km/h (1 Bft) S 180 3,6 C 3,8 C 4,2 km/h (1 Bft)
13.11.2012 06:55 3,9 C 98 % 0,0 l/m 2,6 km/h (1 Bft) W-SW 247 3,6 C 3,9 C 3,4 km/h (1 Bft)
13.11.2012 07:00 3,9 C 98 % 0,0 l/m 3,2 km/h (1 Bft) S-SW 202 3,6 C 3,7 C 2,9 km/h (1 Bft)
13.11.2012 07:05 3,9 C 98 % 0,0 l/m 2,3 km/h (1 Bft) W-NW 292 3,6 C 3,9 C 0,0 km/h (0 Bft)
13.11.2012 07:10 3,9 C 98 % 0,0 l/m 1,3 km/h (1 Bft) W-NW 292 3,6 C 3,9 C 3,7 km/h (1 Bft)
13.11.2012 07:15 3,9 C 98 % 0,0 l/m 1,4 km/h (1 Bft) W-NW 292 3,6 C 3,9 C 5,8 km/h (2 Bft)
13.11.2012 07:20 3,9 C 98 % 0,0 l/m 2,9 km/h (1 Bft) NW 315 3,6 C 3,8 C 4,5 km/h (1 Bft)
13.11.2012 07:25 3,9 C 98 % 0,0 l/m 2,6 km/h (1 Bft) O 90 3,6 C 3,9 C 3,2 km/h (1 Bft)
13.11.2012 07:30 3,9 C 98 % 0,0 l/m 2,7 km/h (1 Bft) W 270 3,6 C 3,9 C 4,0 km/h (1 Bft)
13.11.2012 07:35 3,9 C 98 % 0,0 l/m 3,9 km/h (1 Bft) W-NW 292 3,6 C 3,3 C 3,4 km/h (1 Bft)
13.11.2012 07:40 3,9 C 98 % 0,0 l/m 4,0 km/h (1 Bft) S 180 3,6 C 3,2 C 2,3 km/h (1 Bft)
13.11.2012 07:45 3,9 C 98 % 0,0 l/m 3,7 km/h (1 Bft) W-NW 292 3,6 C 3,4 C 4,8 km/h (1 Bft)
13.11.2012 07:50 3,9 C 98 % 0,0 l/m 3,1 km/h (1 Bft) W-NW 292 3,6 C 3,8 C 3,9 km/h (1 Bft)
13.11.2012 07:55 3,9 C 98 % 0,0 l/m 3,1 km/h (1 Bft) W 270 3,6 C 3,8 C 5,5 km/h (1 Bft)
13.11.2012 08:00 3,9 C 98 % 0,0 l/m 3,1 km/h (1 Bft) W-NW 292 3,6 C 3,8 C 7,6 km/h (2 Bft)
13.11.2012 08:05 3,9 C 98 % 0,0 l/m 3,1 km/h (1 Bft) W-NW 292 3,6 C 3,8 C 5,3 km/h (1 Bft)
13.11.2012 08:10 3,9 C 98 % 0,0 l/m 3,7 km/h (1 Bft) W 270 3,6 C 3,4 C 8,0 km/h (2 Bft)
13.11.2012 08:15 3,9 C 98 % 0,0 l/m 4,3 km/h (1 Bft) NW 315 3,6 C 3,1 C 2,7 km/h (1 Bft)
13.11.2012 08:20 4,0 C 97 % 0,0 l/m 3,7 km/h (1 Bft) W-SW 247 3,6 C 3,6 C 7,6 km/h (2 Bft)
13.11.2012 08:25 4,0 C 97 % 0,0 l/m 3,1 km/h (1 Bft) W-SW 247 3,6 C 3,9 C 5,1 km/h (1 Bft)
13.11.2012 08:30 4,1 C 97 % 0,0 l/m 4,5 km/h (1 Bft) W 270 3,7 C 3,2 C 6,9 km/h (2 Bft)
13.11.2012 08:35 4,0 C 97 % 0,0 l/m 5,1 km/h (1 Bft) W 270 3,6 C 2,9 C 5,1 km/h (1 Bft)
13.11.2012 08:40 4,1 C 97 % 0,0 l/m 4,8 km/h (1 Bft) W-NW 292 3,7 C 3,1 C 8,9 km/h (2 Bft)
13.11.2012 08:45 4,1 C 97 % 0,0 l/m 3,9 km/h (1 Bft) W-NW 292 3,7 C 3,6 C 2,6 km/h (1 Bft)
13.11.2012 08:50 4,1 C 97 % 0,0 l/m 3,1 km/h (1 Bft) S-SO 157 3,7 C 4,1 C 5,8 km/h (2 Bft)
13.11.2012 08:55 4,1 C 97 % 0,0 l/m 3,2 km/h (1 Bft) W-NW 292 3,7 C 4,1 C 7,2 km/h (2 Bft)
13.11.2012 09:00 4,2 C 97 % 0,0 l/m 4,3 km/h (1 Bft) N-NW 337 3,8 C 3,4 C 10,5 km/h (2 Bft)
13.11.2012 09:05 4,3 C 97 % 0,0 l/m 4,0 km/h (1 Bft) S 180 3,9 C 3,6 C 2,7 km/h (1 Bft)
13.11.2012 09:10 4,3 C 97 % 0,0 l/m 4,0 km/h (1 Bft) NW 315 3,9 C 3,8 C 4,8 km/h (1 Bft)
13.11.2012 09:15 4,3 C 97 % 0,0 l/m 4,3 km/h (1 Bft) S-SW 202 3,9 C 3,6 C 6,0 km/h (2 Bft)
13.11.2012 09:20 4,3 C 97 % 0,0 l/m 4,3 km/h (1 Bft) N-NW 337 3,9 C 3,7 C 6,1 km/h (2 Bft)
13.11.2012 09:25 4,4 C 97 % 0,0 l/m 3,7 km/h (1 Bft) W-SW 247 4,0 C 4,0 C 3,1 km/h (1 Bft)
13.11.2012 09:30 4,4 C 97 % 0,0 l/m 4,0 km/h (1 Bft) W 270 4,0 C 3,9 C 3,9 km/h (1 Bft)
13.11.2012 09:35 4,5 C 97 % 0,0 l/m 4,3 km/h (1 Bft) W 270 4,1 C 3,9 C 5,0 km/h (1 Bft)
13.11.2012 09:40 4,7 C 97 % 0,0 l/m 4,5 km/h (1 Bft) N-NW 337 4,3 C 4,0 C 4,7 km/h (1 Bft)
13.11.2012 09:45 4,7 C 97 % 0,0 l/m 4,5 km/h (1 Bft) W-SW 247 4,3 C 4,2 C 4,3 km/h (1 Bft)
13.11.2012 09:50 4,6 C 97 % 0,0 l/m 4,5 km/h (1 Bft) W 270 4,2 C 4,2 C 4,0 km/h (1 Bft)
13.11.2012 09:55 4,6 C 97 % 0,0 l/m 3,7 km/h (1 Bft) W-NW 292 4,2 C 4,4 C 2,7 km/h (1 Bft)
13.11.2012 10:00 4,7 C 97 % 0,0 l/m 3,2 km/h (1 Bft) N-NW 337 4,3 C 4,8 C 2,9 km/h (1 Bft)
13.11.2012 10:05 4,8 C 97 % 0,0 l/m 2,9 km/h (1 Bft) W-NW 292 4,4 C 5,0 C 3,9 km/h (1 Bft)
13.11.2012 10:10 4,7 C 97 % 0,0 l/m 3,4 km/h (1 Bft) W-NW 292 4,3 C 4,8 C 7,7 km/h (2 Bft)
13.11.2012 10:15 4,6 C 97 % 0,0 l/m 4,5 km/h (1 Bft) W-NW 292 4,2 C 4,3 C 6,4 km/h (2 Bft)
13.11.2012 10:20 4,6 C 97 % 0,0 l/m 4,7 km/h (1 Bft) W-SW 247 4,2 C 4,2 C 5,0 km/h (1 Bft)
13.11.2012 10:25 4,6 C 97 % 0,0 l/m 4,3 km/h (1 Bft) W-NW 292 4,2 C 4,2 C 3,9 km/h (1 Bft)
13.11.2012 10:30 4,7 C 97 % 0,0 l/m 3,2 km/h (1 Bft) W 270 4,3 C 4,8 C 2,6 km/h (1 Bft)
13.11.2012 10:35 4,6 C 97 % 0,0 l/m 3,4 km/h (1 Bft) O 90 4,2 C 4,7 C 3,2 km/h (1 Bft)
13.11.2012 10:40 4,5 C 97 % 0,0 l/m 3,7 km/h (1 Bft) N-NW 337 4,1 C 4,6 C 2,6 km/h (1 Bft)
13.11.2012 10:45 4,5 C 97 % 0,0 l/m 3,4 km/h (1 Bft) NW 315 4,1 C 4,7 C 6,8 km/h (2 Bft)
13.11.2012 10:50 4,7 C 97 % 0,0 l/m 3,2 km/h (1 Bft) W-SW 247 4,3 C 4,7 C 0,0 km/h (0 Bft)
13.11.2012 10:55 4,8 C 97 % 0,0 l/m 3,1 km/h (1 Bft) N-NW 337 4,4 C 4,8 C 4,5 km/h (1 Bft)
13.11.2012 11:00 4,7 C 97 % 0,0 l/m 2,3 km/h (1 Bft) W-NW 292 4,3 C 4,9 C 4,3 km/h (1 Bft)
13.11.2012 11:05 4,6 C 97 % 0,0 l/m 3,4 km/h (1 Bft) NW 315 4,2 C 4,7 C 4,3 km/h (1 Bft)
13.11.2012 11:10 4,6 C 97 % 0,0 l/m 3,4 km/h (1 Bft) W 270 4,2 C 4,6 C 3,9 km/h (1 Bft)
13.11.2012 11:15 4,6 C 97 % 0,0 l/m 2,9 km/h (1 Bft) O-SO 112 4,2 C 4,9 C 4,2 km/h (1 Bft)
13.11.2012 11:20 4,6 C 97 % 0,0 l/m 3,7 km/h (1 Bft) N-NW 337 4,2 C 4,6 C 5,1 km/h (1 Bft)
13.11.2012 11:25 4,6 C 97 % 0,0 l/m 3,4 km/h (1 Bft) SO 135 4,2 C 4,8 C 0,0 km/h (0 Bft)
13.11.2012 11:30 4,8 C 97 % 0,0 l/m 2,6 km/h (1 Bft) W-NW 292 4,4 C 5,1 C 4,5 km/h (1 Bft)
13.11.2012 11:35 4,8 C 97 % 0,0 l/m 3,1 km/h (1 Bft) N 360 4,4 C 5,1 C 2,4 km/h (1 Bft)
13.11.2012 11:40 4,9 C 97 % 0,0 l/m 3,1 km/h (1 Bft) W-SW 247 4,5 C 5,2 C 3,1 km/h (1 Bft)
13.11.2012 11:45 4,9 C 97 % 0,0 l/m 2,6 km/h (1 Bft) W-NW 292 4,5 C 5,1 C 4,0 km/h (1 Bft)
13.11.2012 11:50 4,8 C 97 % 0,0 l/m 3,5 km/h (1 Bft) N-NW 337 4,4 C 5,0 C 6,3 km/h (2 Bft)
13.11.2012 11:55 4,9 C 97 % 0,0 l/m 3,2 km/h (1 Bft) W-NW 292 4,5 C 5,2 C 6,1 km/h (2 Bft)
13.11.2012 12:00 4,8 C 97 % 0,0 l/m 3,2 km/h (1 Bft) W-NW 292 4,4 C 5,2 C 4,2 km/h (1 Bft)
13.11.2012 12:05 4,9 C 97 % 0,0 l/m 3,5 km/h (1 Bft) N-NW 337 4,5 C 5,0 C 2,6 km/h (1 Bft)
13.11.2012 12:10 5,0 C 97 % 0,0 l/m 3,7 km/h (1 Bft) O-SO 112 4,6 C 4,9 C 5,0 km/h (1 Bft)
13.11.2012 12:15 5,0 C 97 % 0,0 l/m 4,0 km/h (1 Bft) W-NW 292 4,6 C 4,7 C 6,4 km/h (2 Bft)
13.11.2012 12:20 4,9 C 97 % 0,0 l/m 4,5 km/h (1 Bft) W-NW 292 4,5 C 4,5 C 6,0 km/h (2 Bft)
13.11.2012 12:25 5,0 C 97 % 0,0 l/m 4,3 km/h (1 Bft) SW 225 4,6 C 4,7 C 4,5 km/h (1 Bft)
13.11.2012 12:30 5,0 C 97 % 0,0 l/m 4,3 km/h (1 Bft) W-NW 292 4,6 C 4,8 C 12,2 km/h (2 Bft)
13.11.2012 12:35 5,1 C 97 % 0,0 l/m 4,0 km/h (1 Bft) W 270 4,7 C 4,9 C 3,4 km/h (1 Bft)
13.11.2012 12:40 5,1 C 97 % 0,0 l/m 3,5 km/h (1 Bft) O 90 4,7 C 5,2 C 2,3 km/h (1 Bft)
13.11.2012 12:45 5,1 C 97 % 0,0 l/m 3,7 km/h (1 Bft) W 270 4,7 C 5,2 C 6,8 km/h (2 Bft)
13.11.2012 12:50 5,1 C 97 % 0,0 l/m 3,7 km/h (1 Bft) W-NW 292 4,7 C 5,2 C 4,8 km/h (1 Bft)
13.11.2012 12:55 5,1 C 97 % 0,0 l/m 3,7 km/h (1 Bft) N-NW 337 4,7 C 5,3 C 2,9 km/h (1 Bft)
13.11.2012 13:00 5,1 C 97 % 0,0 l/m 3,1 km/h (1 Bft) O-NO 67 4,7 C 5,6 C 0,0 km/h (0 Bft)
13.11.2012 13:05 5,1 C 97 % 0,0 l/m 2,4 km/h (1 Bft) N-NO 22 4,7 C 5,6 C 1,9 km/h (1 Bft)
13.11.2012 13:10 5,0 C 97 % 0,0 l/m 2,1 km/h (1 Bft) W 270 4,6 C 5,6 C 3,2 km/h (1 Bft)
13.11.2012 13:15 5,1 C 97 % 0,0 l/m 2,3 km/h (1 Bft) W 270 4,7 C 5,5 C 4,7 km/h (1 Bft)
13.11.2012 13:20 5,1 C 97 % 0,0 l/m 2,4 km/h (1 Bft) N 360 4,7 C 5,5 C 2,7 km/h (1 Bft)
13.11.2012 13:25 5,0 C 97 % 0,0 l/m 2,4 km/h (1 Bft) W 270 4,6 C 5,4 C 2,6 km/h (1 Bft)
13.11.2012 13:30 5,1 C 97 % 0,0 l/m 2,6 km/h (1 Bft) W-SW 247 4,7 C 5,4 C 1,6 km/h (1 Bft)
13.11.2012 13:35 5,2 C 97 % 0,0 l/m 2,7 km/h (1 Bft) NW 315 4,8 C 5,5 C 2,9 km/h (1 Bft)
13.11.2012 13:40 5,1 C 97 % 0,0 l/m 2,6 km/h (1 Bft) N-NO 22 4,7 C 5,5 C 1,9 km/h (1 Bft)
13.11.2012 13:45 5,1 C 97 % 0,0 l/m 2,6 km/h (1 Bft) NW 315 4,7 C 5,5 C 3,1 km/h (1 Bft)
13.11.2012 13:50 5,0 C 97 % 0,0 l/m 2,6 km/h (1 Bft) NW 315 4,6 C 5,4 C 2,9 km/h (1 Bft)
13.11.2012 13:55 5,0 C 97 % 0,0 l/m 3,1 km/h (1 Bft) SO 135 4,6 C 5,4 C 2,7 km/h (1 Bft)
13.11.2012 14:00 5,0 C 96 % 0,0 l/m 2,6 km/h (1 Bft) N 360 4,4 C 5,4 C 1,6 km/h (1 Bft)
13.11.2012 14:05 5,0 C 96 % 0,0 l/m 2,4 km/h (1 Bft) W 270 4,4 C 5,4 C 5,5 km/h (1 Bft)
13.11.2012 14:10 4,9 C 97 % 0,0 l/m 3,2 km/h (1 Bft) N-NW 337 4,5 C 5,2 C 0,0 km/h (0 Bft)
13.11.2012 14:15 4,9 C 97 % 0,0 l/m 3,7 km/h (1 Bft) W-NW 292 4,5 C 4,9 C 5,5 km/h (1 Bft)
13.11.2012 14:20 5,0 C 96 % 0,0 l/m 3,2 km/h (1 Bft) W-NW 292 4,4 C 5,2 C 3,4 km/h (1 Bft)
13.11.2012 14:25 5,0 C 96 % 0,0 l/m 3,2 km/h (1 Bft) S-SW 202 4,4 C 5,2 C 4,0 km/h (1 Bft)
13.11.2012 14:30 5,0 C 96 % 0,0 l/m 2,6 km/h (1 Bft) N-NW 337 4,4 C 5,4 C 0,0 km/h (0 Bft)
13.11.2012 14:35 5,1 C 96 % 0,0 l/m 3,1 km/h (1 Bft) SW 225 4,5 C 5,4 C 5,1 km/h (1 Bft)
13.11.2012 14:40 5,1 C 96 % 0,0 l/m 3,5 km/h (1 Bft) W 270 4,5 C 5,2 C 4,7 km/h (1 Bft)
13.11.2012 14:45 5,0 C 96 % 0,0 l/m 4,0 km/h (1 Bft) W-SW 247 4,4 C 4,9 C 8,9 km/h (2 Bft)
13.11.2012 14:50 4,8 C 97 % 0,0 l/m 5,1 km/h (1 Bft) W 270 4,4 C 4,2 C 7,1 km/h (2 Bft)
13.11.2012 14:55 4,9 C 97 % 0,0 l/m 5,0 km/h (1 Bft) W 270 4,5 C 4,2 C 8,0 km/h (2 Bft)
13.11.2012 15:00 4,8 C 97 % 0,0 l/m 4,5 km/h (1 Bft) W-SW 247 4,4 C 4,3 C 2,4 km/h (1 Bft)
13.11.2012 15:05 4,8 C 97 % 0,0 l/m 4,0 km/h (1 Bft) W 270 4,4 C 4,5 C 4,7 km/h (1 Bft)
13.11.2012 15:10 4,8 C 97 % 0,0 l/m 3,5 km/h (1 Bft) W 270 4,4 C 4,7 C 6,8 km/h (2 Bft)
13.11.2012 15:15 4,8 C 97 % 0,0 l/m 3,9 km/h (1 Bft) W-NW 292 4,4 C 4,6 C 5,1 km/h (1 Bft)
13.11.2012 15:20 4,8 C 97 % 0,0 l/m 3,5 km/h (1 Bft) W-SW 247 4,4 C 4,7 C 2,4 km/h (1 Bft)
13.11.2012 15:25 4,8 C 97 % 0,0 l/m 3,2 km/h (1 Bft) NW 315 4,4 C 4,9 C 0,0 km/h (0 Bft)
13.11.2012 15:30 4,8 C 97 % 0,0 l/m 3,1 km/h (1 Bft) W 270 4,4 C 4,9 C 2,9 km/h (1 Bft)
13.11.2012 15:35 4,8 C 97 % 0,0 l/m 2,9 km/h (1 Bft) W 270 4,4 C 5,0 C 2,4 km/h (1 Bft)
13.11.2012 15:40 4,8 C 97 % 0,0 l/m 3,4 km/h (1 Bft) NW 315 4,4 C 4,8 C 6,1 km/h (2 Bft)
13.11.2012 15:45 4,8 C 97 % 0,0 l/m 3,7 km/h (1 Bft) W-NW 292 4,4 C 4,7 C 10,3 km/h (2 Bft)
13.11.2012 15:50 4,8 C 97 % 0,0 l/m 4,0 km/h (1 Bft) W-NW 292 4,4 C 4,3 C 5,5 km/h (1 Bft)
13.11.2012 15:55 4,8 C 97 % 0,0 l/m 3,4 km/h (1 Bft) W-NW 292 4,4 C 4,7 C 3,4 km/h (1 Bft)
13.11.2012 16:00 4,8 C 97 % 0,0 l/m 2,7 km/h (1 Bft) W-NW 292 4,4 C 4,9 C 5,6 km/h (1 Bft)
13.11.2012 16:05 4,7 C 97 % 0,0 l/m 2,9 km/h (1 Bft) NW 315 4,3 C 4,9 C 6,6 km/h (2 Bft)
13.11.2012 16:10 4,8 C 97 % 0,0 l/m 2,9 km/h (1 Bft) SW 225 4,4 C 4,9 C 2,7 km/h (1 Bft)
13.11.2012 16:15 4,7 C 97 % 0,0 l/m 2,4 km/h (1 Bft) W 270 4,3 C 4,9 C 3,9 km/h (1 Bft)
13.11.2012 16:20 4,7 C 97 % 0,0 l/m 3,1 km/h (1 Bft) W 270 4,3 C 4,7 C 7,1 km/h (2 Bft)
13.11.2012 16:25 4,7 C 97 % 0,0 l/m 3,5 km/h (1 Bft) W-NW 292 4,3 C 4,5 C 3,4 km/h (1 Bft)
13.11.2012 16:30 4,7 C 97 % 0,0 l/m 2,9 km/h (1 Bft) W 270 4,3 C 4,8 C 2,7 km/h (1 Bft)
13.11.2012 16:35 4,7 C 97 % 0,0 l/m 2,7 km/h (1 Bft) N-NO 22 4,3 C 4,8 C 2,4 km/h (1 Bft)
13.11.2012 16:40 4,7 C 97 % 0,0 l/m 2,6 km/h (1 Bft) W-NW 292 4,3 C 4,8 C 5,0 km/h (1 Bft)
13.11.2012 16:45 4,7 C 97 % 0,0 l/m 2,3 km/h (1 Bft) SW 225 4,3 C 4,8 C 1,8 km/h (1 Bft)
13.11.2012 16:50 4,7 C 97 % 0,0 l/m 2,3 km/h (1 Bft) W 270 4,3 C 4,7 C 4,3 km/h (1 Bft)
13.11.2012 16:55 4,6 C 97 % 0,0 l/m 1,9 km/h (1 Bft) N-NW 337 4,2 C 4,7 C 0,0 km/h (0 Bft)
13.11.2012 17:00 4,6 C 97 % 0,0 l/m 3,1 km/h (1 Bft) W 270 4,2 C 4,7 C 4,0 km/h (1 Bft)
13.11.2012 17:05 4,6 C 97 % 0,0 l/m 3,7 km/h (1 Bft) W-SW 247 4,2 C 4,2 C 6,1 km/h (2 Bft)
13.11.2012 17:10 4,5 C 97 % 0,0 l/m 4,3 km/h (1 Bft) W-SW 247 4,1 C 3,9 C 6,4 km/h (2 Bft)
13.11.2012 17:15 4,5 C 97 % 0,0 l/m 3,9 km/h (1 Bft) W-NW 292 4,1 C 4,2 C 3,2 km/h (1 Bft)
13.11.2012 17:20 4,5 C 97 % 0,0 l/m 3,2 km/h (1 Bft) W-NW 292 4,1 C 4,3 C 2,4 km/h (1 Bft)
13.11.2012 17:22 4,5 C 97 % 0,0 l/m 3,5 km/h (1 Bft) W-SW 247 4,1 C 4,2 C 5,0 km/h (1 Bft)
13.11.2012 17:27 4,4 C 97 % 0,0 l/m 3,2 km/h (1 Bft) W-NW 292 4,0 C 4,2 C 4,8 km/h (1 Bft)
13.11.2012 17:32 4,3 C 97 % 0,0 l/m 4,2 km/h (1 Bft) W-NW 292 3,9 C 3,6 C 6,1 km/h (2 Bft)
13.11.2012 17:37 4,3 C 97 % 0,0 l/m 4,8 km/h (1 Bft) W 270 3,9 C 3,3 C 7,4 km/h (2 Bft)
13.11.2012 17:42 4,3 C 97 % 0,0 l/m 4,0 km/h (1 Bft) S-SO 157 3,9 C 3,7 C 3,2 km/h (1 Bft)
13.11.2012 17:47 4,3 C 97 % 0,0 l/m 2,7 km/h (1 Bft) W-NW 292 3,9 C 4,2 C 8,5 km/h (2 Bft)
13.11.2012 17:52 4,3 C 97 % 0,0 l/m 3,4 km/h (1 Bft) W-NW 292 3,9 C 3,9 C 6,1 km/h (2 Bft)
13.11.2012 17:57 4,2 C 97 % 0,0 l/m 4,7 km/h (1 Bft) NW 315 3,8 C 3,3 C 7,6 km/h (2 Bft)
13.11.2012 18:02 4,2 C 97 % 0,0 l/m 5,1 km/h (1 Bft) W 270 3,8 C 3,1 C 8,2 km/h (2 Bft)
13.11.2012 18:07 4,3 C 97 % 0,0 l/m 4,2 km/h (1 Bft) W 270 3,9 C 3,6 C 2,7 km/h (1 Bft)
13.11.2012 18:12 4,2 C 97 % 0,0 l/m 4,0 km/h (1 Bft) W-NW 292 3,8 C 3,6 C 7,7 km/h (2 Bft)
13.11.2012 18:17 4,3 C 97 % 0,0 l/m 4,5 km/h (1 Bft) W-NW 292 3,9 C 3,4 C 5,1 km/h (1 Bft)
13.11.2012 18:22 4,3 C 97 % 0,0 l/m 4,3 km/h (1 Bft) W-NW 292 3,9 C 3,4 C 9,5 km/h (2 Bft)
13.11.2012 18:27 4,3 C 97 % 0,0 l/m 3,9 km/h (1 Bft) N-NW 337 3,9 C 3,7 C 3,4 km/h (1 Bft)
13.11.2012 18:32 4,3 C 97 % 0,0 l/m 3,7 km/h (1 Bft) W-NW 292 3,9 C 3,8 C 8,0 km/h (2 Bft)
13.11.2012 18:37 4,3 C 97 % 0,0 l/m 4,0 km/h (1 Bft) W-NW 292 3,9 C 3,6 C 4,3 km/h (1 Bft)
13.11.2012 18:42 4,3 C 97 % 0,0 l/m 4,8 km/h (1 Bft) W-NW 292 3,9 C 3,3 C 3,7 km/h (1 Bft)
13.11.2012 18:47 4,2 C 97 % 0,0 l/m 3,9 km/h (1 Bft) N 360 3,8 C 3,7 C 3,4 km/h (1 Bft)
13.11.2012 18:52 4,2 C 97 % 0,0 l/m 4,0 km/h (1 Bft) N-NW 337 3,8 C 3,6 C 5,5 km/h (1 Bft)
13.11.2012 18:57 4,2 C 97 % 0,0 l/m 3,7 km/h (1 Bft) W 270 3,8 C 3,7 C 4,0 km/h (1 Bft)
13.11.2012 19:02 4,2 C 97 % 0,0 l/m 3,2 km/h (1 Bft) W-SW 247 3,8 C 3,9 C 3,7 km/h (1 Bft)
13.11.2012 19:07 4,2 C 97 % 0,0 l/m 3,7 km/h (1 Bft) W-NW 292 3,8 C 3,7 C 5,8 km/h (2 Bft)
13.11.2012 19:12 4,2 C 97 % 0,0 l/m 3,9 km/h (1 Bft) S 180 3,8 C 3,6 C 3,2 km/h (1 Bft)
13.11.2012 19:17 4,2 C 97 % 0,0 l/m 3,4 km/h (1 Bft) W-NW 292 3,8 C 3,8 C 8,0 km/h (2 Bft)
13.11.2012 19:22 4,1 C 97 % 0,0 l/m 3,1 km/h (1 Bft) N 360 3,7 C 4,0 C 3,5 km/h (1 Bft)
13.11.2012 19:27 4,1 C 97 % 0,0 l/m 3,5 km/h (1 Bft) O-SO 112 3,7 C 3,8 C 6,6 km/h (2 Bft)
13.11.2012 19:32 4,1 C 97 % 0,0 l/m 3,7 km/h (1 Bft) W-NW 292 3,7 C 3,7 C 4,0 km/h (1 Bft)
13.11.2012 19:37 4,1 C 97 % 0,0 l/m 3,2 km/h (1 Bft) W-NW 292 3,7 C 3,9 C 3,1 km/h (1 Bft)
13.11.2012 19:42 4,1 C 97 % 0,0 l/m 2,6 km/h (1 Bft) W 270 3,7 C 4,1 C 4,7 km/h (1 Bft)
13.11.2012 19:47 4,1 C 97 % 0,0 l/m 2,7 km/h (1 Bft) W-NW 292 3,7 C 4,1 C 3,7 km/h (1 Bft)
13.11.2012 19:52 4,1 C 97 % 0,0 l/m 2,4 km/h (1 Bft) W-NW 292 3,7 C 4,1 C 3,1 km/h (1 Bft)
13.11.2012 19:58 4,1 C 97 % 0,0 l/m 2,3 km/h (1 Bft) W-NW 292 3,7 C 4,1 C 4,5 km/h (1 Bft)
13.11.2012 20:00 4,1 C 97 % 0,0 l/m 2,3 km/h (1 Bft) W-NW 292 3,7 C 4,1 C 4,5 km/h (1 Bft)
13.11.2012 20:05 4,1 C 97 % 0,0 l/m 2,4 km/h (1 Bft) S-SW 202 3,7 C 4,1 C 3,7 km/h (1 Bft)
13.11.2012 20:10 4,2 C 97 % 0,0 l/m 2,7 km/h (1 Bft) NW 315 3,8 C 4,1 C 3,4 km/h (1 Bft)
13.11.2012 20:15 4,2 C 97 % 0,0 l/m 2,4 km/h (1 Bft) W-NW 292 3,8 C 4,1 C 1,9 km/h (1 Bft)
13.11.2012 20:20 4,2 C 97 % 0,0 l/m 2,1 km/h (1 Bft) O-SO 112 3,8 C 4,1 C 0,0 km/h (0 Bft)
13.11.2012 20:25 4,2 C 97 % 0,0 l/m 1,1 km/h (1 Bft) W-SW 247 3,8 C 4,1 C 0,0 km/h (0 Bft)
13.11.2012 20:30 4,2 C 97 % 0,0 l/m 0,6 km/h (0 Bft) S-SW 202 3,8 C 4,1 C 0,0 km/h (0 Bft)
13.11.2012 20:35 4,2 C 97 % 0,0 l/m 0,6 km/h (0 Bft) N-NW 337 3,8 C 4,1 C 0,0 km/h (0 Bft)
13.11.2012 20:40 4,2 C 97 % 0,0 l/m 0,5 km/h (0 Bft) W-NW 292 3,8 C 4,1 C 0,0 km/h (0 Bft)
13.11.2012 20:45 4,2 C 97 % 0,0 l/m 0,5 km/h (0 Bft) NO 45 3,8 C 4,1 C 0,0 km/h (0 Bft)
13.11.2012 20:50 4,2 C 97 % 0,0 l/m 0,3 km/h (0 Bft) N-NW 337 3,8 C 4,1 C 0,0 km/h (0 Bft)
13.11.2012 20:55 4,2 C 97 % 0,0 l/m 0,6 km/h (0 Bft) W-NW 292 3,8 C 4,1 C 0,0 km/h (0 Bft)
13.11.2012 21:00 4,2 C 97 % 0,0 l/m 0,6 km/h (0 Bft) W-NW 292 3,8 C 4,1 C 1,8 km/h (1 Bft)
13.11.2012 21:05 4,2 C 97 % 0,0 l/m 0,2 km/h (0 Bft) W 270 3,8 C 4,1 C 0,0 km/h (0 Bft)
13.11.2012 21:10 4,2 C 97 % 0,0 l/m 0,5 km/h (0 Bft) W-SW 247 3,8 C 4,1 C 1,6 km/h (1 Bft)
13.11.2012 21:15 4,2 C 97 % 0,0 l/m 0,2 km/h (0 Bft) N 360 3,8 C 4,1 C 0,0 km/h (0 Bft)
13.11.2012 21:20 4,2 C 97 % 0,0 l/m 0,0 km/h (0 Bft) W-SW 247 3,8 C 4,1 C 0,0 km/h (0 Bft)
13.11.2012 21:25 4,2 C 97 % 0,0 l/m 0,0 km/h (0 Bft) W-SW 247 3,8 C 4,2 C 0,0 km/h (0 Bft)
13.11.2012 21:30 4,3 C 97 % 0,0 l/m 0,0 km/h (0 Bft) N-NW 337 3,9 C 4,2 C 0,0 km/h (0 Bft)
13.11.2012 21:35 4,2 C 97 % 0,0 l/m 0,2 km/h (0 Bft) N-NW 337 3,8 C 4,2 C 0,0 km/h (0 Bft)
13.11.2012 21:40 4,2 C 97 % 0,0 l/m 0,2 km/h (0 Bft) NW 315 3,8 C 4,1 C 0,0 km/h (0 Bft)
13.11.2012 21:45 4,2 C 97 % 0,0 l/m 0,2 km/h (0 Bft) N-NW 337 3,8 C 4,1 C 1,8 km/h (1 Bft)
13.11.2012 21:50 4,2 C 97 % 0,0 l/m 0,5 km/h (0 Bft) N 360 3,8 C 4,1 C 2,3 km/h (1 Bft)
13.11.2012 21:55 4,2 C 97 % 0,0 l/m 0,6 km/h (0 Bft) W-NW 292 3,8 C 4,1 C 0,0 km/h (0 Bft)
13.11.2012 22:00 4,2 C 97 % 0,0 l/m 1,0 km/h (0 Bft) N 360 3,8 C 4,1 C 2,1 km/h (1 Bft)
13.11.2012 22:05 4,2 C 97 % 0,0 l/m 0,8 km/h (0 Bft) W 270 3,8 C 4,1 C 0,0 km/h (0 Bft)
13.11.2012 22:10 4,2 C 97 % 0,0 l/m 0,3 km/h (0 Bft) N-NW 337 3,8 C 4,1 C 0,0 km/h (0 Bft)
13.11.2012 22:15 4,2 C 97 % 0,0 l/m 1,0 km/h (0 Bft) N-NW 337 3,8 C 4,1 C 2,9 km/h (1 Bft)
13.11.2012 22:20 4,2 C 97 % 0,0 l/m 2,3 km/h (1 Bft) W-NW 292 3,8 C 4,1 C 5,8 km/h (2 Bft)
13.11.2012 22:25 4,2 C 97 % 0,0 l/m 2,4 km/h (1 Bft) W 270 3,8 C 4,1 C 2,4 km/h (1 Bft)
13.11.2012 22:30 4,2 C 97 % 0,0 l/m 1,9 km/h (1 Bft) W-NW 292 3,8 C 4,1 C 1,8 km/h (1 Bft)
13.11.2012 22:35 4,2 C 97 % 0,0 l/m 0,8 km/h (0 Bft) W-NW 292 3,8 C 4,1 C 1,9 km/h (1 Bft)
13.11.2012 22:40 4,1 C 97 % 0,0 l/m 1,6 km/h (1 Bft) N-NW 337 3,7 C 4,1 C 0,0 km/h (0 Bft)
13.11.2012 22:45 4,1 C 97 % 0,0 l/m 1,6 km/h (1 Bft) N 360 3,7 C 4,1 C 0,0 km/h (0 Bft)
13.11.2012 22:50 4,1 C 97 % 0,0 l/m 0,8 km/h (0 Bft) N-NW 337 3,7 C 4,1 C 2,1 km/h (1 Bft)
13.11.2012 22:55 4,1 C 97 % 0,0 l/m 1,6 km/h (1 Bft) NO 45 3,7 C 4,1 C 2,6 km/h (1 Bft)
13.11.2012 23:00 4,1 C 97 % 0,0 l/m 1,8 km/h (1 Bft) N-NW 337 3,7 C 4,1 C 0,0 km/h (0 Bft)
13.11.2012 23:05 4,1 C 97 % 0,0 l/m 0,8 km/h (0 Bft) N 360 3,7 C 4,1 C 0,0 km/h (0 Bft)
13.11.2012 23:10 4,1 C 97 % 0,0 l/m 0,2 km/h (0 Bft) N 360 3,7 C 4,1 C 0,0 km/h (0 Bft)
13.11.2012 23:15 4,1 C 97 % 0,0 l/m 0,2 km/h (0 Bft) W 270 3,7 C 4,1 C 0,0 km/h (0 Bft)
13.11.2012 23:20 4,1 C 97 % 0,0 l/m 0,2 km/h (0 Bft) NW 315 3,7 C 4,1 C 3,1 km/h (1 Bft)
13.11.2012 23:25 4,1 C 97 % 0,0 l/m 0,3 km/h (0 Bft) N-NO 22 3,7 C 4,1 C 0,0 km/h (0 Bft)
13.11.2012 23:30 4,1 C 97 % 0,0 l/m 0,5 km/h (0 Bft) N-NO 22 3,7 C 4,1 C 0,0 km/h (0 Bft)
13.11.2012 23:35 4,1 C 97 % 0,0 l/m 0,3 km/h (0 Bft) N-NW 337 3,7 C 4,1 C 1,6 km/h (1 Bft)
13.11.2012 23:40 4,1 C 97 % 0,0 l/m 0,3 km/h (0 Bft) NO 45 3,7 C 4,1 C 0,0 km/h (0 Bft)
13.11.2012 23:45 4,1 C 97 % 0,0 l/m 0,3 km/h (0 Bft) NO 45 3,7 C 4,1 C 0,0 km/h (0 Bft)
13.11.2012 23:50 4,1 C 97 % 0,0 l/m 0,0 km/h (0 Bft) N 360 3,7 C 4,1 C 0,0 km/h (0 Bft)
13.11.2012 23:55 4,1 C 97 % 0,0 l/m 0,0 km/h (0 Bft) O-NO 67 3,7 C 4,1 C 0,0 km/h (0 Bft)
_ Min-Zeit 08:15 14:45 - 23:55 - - 08:35 08:35 23:55
Minimum _ 3,9 C 96 % - 0,0 km/h (0 Bft) - - 3,6 C 2,9 C 0,0 km/h (0 Bft)
_ Max-Zeit 13:35 08:15 02:00 18:02 - - 13:35 13:10 12:30
Maximum _ 5,2 C 98 % 0,7 l/m 5,1 km/h
W (1 Bft)
- - 4,8 C 5,6 C 12,2 km/h
W-NW (2 Bft)
Durchschnitt _ 4,4 C 97 % #0,7 l/m 2,7 km/h (1 Bft) W-NW - 4,0 C 4,3 C 3,5 km/h (1 Bft)